This demonstration page uses our WeatherBlox Daily Observations layout. Learn more.

Left ArrowRight Arrow

Hourly Observations for May 24, 2017

Temp ( °F °C ) Dew Point ( °F °C ) Humidity (%) Winds ( mph kmh ) Pressure ( in mb ) Visibility ( mi km ) Precip ( " mm )
12:15 am 00:15 Cloudy 48 9 39 4 71 71 NNW 12 19 29.94 1014 10 16 0.00 0.00
12:35 am 00:35 Mostly Cloudy 48 9 39 4 71 71 NNW 10 17 29.94 1014 10 16 0.00 0.00
12:55 am 00:55 Mostly Cloudy 48 9 39 4 71 71 NNW 8 13 29.94 1014 10 16 0.00 0.00
1:15 am 01:15 Cloudy 48 9 39 4 71 71 NNW 7 11 29.94 1014 10 16 0.00 0.00
1:35 am 01:35 Cloudy 48 9 39 4 71 71 NNW 8 13 29.91 1013 10 16 0.00 0.00
1:55 am 01:55 Cloudy 48 9 39 4 71 71 NNW 8 13 29.91 1013 10 16 0.00 0.00
2:15 am 02:15 Cloudy 48 9 39 4 71 71 NNW 7 11 29.91 1013 10 16 0.00 0.00
2:35 am 02:35 Cloudy 48 9 39 4 71 71 NNW 9 15 29.91 1013 10 16 0.00 0.00
2:55 am 02:55 Mostly Cloudy 48 9 39 4 71 71 N 9 15 29.88 1012 10 16 0.00 0.00
3:15 am 03:15 Partly Cloudy 46 8 39 4 76 76 NNW 8 13 29.88 1012 10 16 0.00 0.00
3:35 am 03:35 Clear 46 8 39 4 76 76 NNW 8 13 29.88 1012 10 16 0.00 0.00
3:55 am 03:55 Clear 46 8 39 4 76 76 NW 7 11 29.88 1012 10 16 0.00 0.00
4:15 am 04:15 Partly Cloudy 46 8 37 3 71 71 NW 7 11 29.88 1012 10 16 0.00 0.00
4:35 am 04:35 Mostly Clear 46 8 37 3 71 71 NW 6 9 29.88 1012 10 16 0.00 0.00
4:55 am 04:55 Clear 45 7 37 3 76 76 WNW 5 7 29.91 1013 10 16 0.00 0.00
5:15 am 05:15 Clear 43 6 37 3 81 81 WNW 6 9 29.91 1013 10 16 0.00 0.00
5:35 am 05:35 Clear 43 6 37 3 81 81 NW 7 11 29.91 1013 10 16 0.00 0.00
5:55 am 05:55 Clear 43 6 37 3 81 81 NNW 6 9 29.91 1013 10 16 0.00 0.00
6:15 am 06:15 Sunny 43 6 37 3 81 81 NNW 5 7 29.91 1013 10 16 0.00 0.00
6:35 am 06:35 Sunny 43 6 37 3 81 81 NNW 7 11 29.91 1013 10 16 0.00 0.00
6:55 am 06:55 Sunny 43 6 37 3 81 81 NNW 5 7 29.91 1013 10 16 0.00 0.00
7:15 am 07:15 Sunny 45 7 37 3 76 76 NW 6 9 29.91 1013 10 16 0.00 0.00
7:35 am 07:35 Sunny 45 7 39 4 81 81 NW 6 9 29.91 1013 10 16 0.00 0.00
7:55 am 07:55 Sunny 46 8 39 4 76 76 N 6 9 29.88 1012 10 16 0.00 0.00
8:15 am 08:15 Sunny 48 9 41 5 76 76 N 8 13 29.88 1012 10 16 0.00 0.00
8:35 am 08:35 Sunny 50 10 41 5 71 71 NNW 8 13 29.88 1012 10 16 0.00 0.00
8:55 am 08:55 Sunny 52 11 39 4 62 62 NNW 7 11 29.85 1011 10 16 0.00 0.00
9:15 am 09:15 Mostly Sunny 50 10 41 5 71 71 NNW 8 13 29.88 1012 10 16 0.00 0.00
9:35 am 09:35 Partly Cloudy 52 11 41 5 67 67 N 6 9 29.83 1010 10 16 0.00 0.00
9:55 am 09:55 Mostly Cloudy 54 12 39 4 58 58 N 8 13 29.83 1010 10 16 0.00 0.00
10:15 am 10:15 Mostly Cloudy 54 12 39 4 58 58 NNW 6 9 29.83 1010 10 16 0.00 0.00
10:35 am 10:35 Mostly Cloudy 54 12 39 4 58 58 NW 6 9 29.83 1010 10 16 0.00 0.00
10:55 am 10:55 Mostly Cloudy 54 12 39 4 58 58 Calm 29.83 1010 10 16 0.00 0.00
11:15 am 11:15 Mostly Sunny 55 13 39 4 55 55 N 5 7 29.80 1009 10 16 0.00 0.00
11:35 am 11:35 Sunny 55 13 39 4 55 55 NNW 5 7 29.80 1009 10 16 0.00 0.00
11:55 am 11:55 Partly Cloudy 55 13 37 3 51 51 N 5 7 29.80 1009 10 16 0.00 0.00
12:15 pm 12:15 Mostly Cloudy 57 14 37 3 48 48 Calm 29.77 1008 10 16 0.00 0.00
12:35 pm 12:35 Cloudy 57 14 39 4 51 51 Calm 29.77 1008 10 16 0.00 0.00
12:55 pm 12:55 Partly Cloudy 57 14 37 3 48 48 Calm 29.74 1007 10 16 0.00 0.00
1:15 pm 13:15 Sunny 57 14 39 4 51 51 Calm 29.74 1007 10 16 0.00 0.00
1:35 pm 13:35 Mostly Sunny 59 15 39 4 48 48 Calm 29.74 1007 10 16 0.00 0.00
1:55 pm 13:55 Sunny 61 16 39 4 45 45 W 7 11 29.74 1007 10 16 0.00 0.00
2:15 pm 14:15 Sunny 61 16 41 5 48 48 ESE 5 7 29.71 1006 10 16 0.00 0.00
2:35 pm 14:35 Sunny 61 16 41 5 48 48 S 9 15 29.71 1006 10 16 0.00 0.00
2:55 pm 14:55 Mostly Sunny 63 17 41 5 45 45 S 3 6 29.68 1005 10 16 0.00 0.00
3:15 pm 15:15 Sunny 63 17 39 4 42 42 Calm 29.68 1005 10 16 0.00 0.00
3:35 pm 15:35 Sunny 63 17 41 5 45 45 SE 3 6 29.65 1004 10 16 0.00 0.00
3:55 pm 15:55 Sunny 64 18 43 6 46 46 S 6 9 29.65 1004 10 16 0.00 0.00
4:15 pm 16:15 Sunny 64 18 41 5 43 43 SSW 12 19 29.65 1004 10 16 0.00 0.00
4:35 pm 16:35 Sunny 64 18 41 5 43 43 S 6 9 29.65 1004 10 16 0.00 0.00
4:55 pm 16:55 Sunny 64 18 39 4 40 40 SW 6 9 29.62 1003 10 16 0.00 0.00
5:15 pm 17:15 Sunny 64 18 39 4 40 40 Calm 29.62 1003 10 16 0.00 0.00
5:35 pm 17:35 Sunny 66 19 41 5 40 40 SSW 6 9 29.62 1003 10 16 0.00 0.00
5:55 pm 17:55 Sunny 66 19 39 4 37 37 S 8 13 29.62 1003 10 16 0.00 0.00
6:15 pm 18:15 Sunny 66 19 39 4 37 37 SSE 9 15 29.62 1003 10 16 0.00 0.00
6:35 pm 18:35 Sunny 66 19 41 5 40 40 SSE 16 26 29.59 1002 10 16 0.00 0.00
6:55 pm 18:55 Sunny 66 19 41 5 40 40 S 13 20 29.59 1002 10 16 0.00 0.00
7:15 pm 19:15 Sunny 64 18 39 4 40 40 SSE 10 17 29.59 1002 10 16 0.00 0.00
7:35 pm 19:35 Sunny 64 18 39 4 40 40 S 12 19 29.59 1002 10 16 0.00 0.00
7:55 pm 19:55 Sunny 64 18 37 3 37 37 S 12 19 29.59 1002 10 16 0.00 0.00
8:15 pm 20:15 Sunny 63 17 39 4 42 42 SSE 10 17 29.59 1002 10 16 0.00 0.00
8:35 pm 20:35 Sunny 63 17 39 4 42 42 SSE 10 17 29.56 1001 10 16 0.00 0.00
8:55 pm 20:55 Clear 61 16 43 6 52 52 SSE 8 13 29.59 1002 10 16 0.00 0.00
9:15 pm 21:15 Clear 59 15 43 6 55 55 SSE 10 17 29.62 1003 10 16 0.00 0.00
9:35 pm 21:35 Clear 57 14 43 6 59 59 SE 13 20 29.59 1002 10 16 0.00 0.00
9:55 pm 21:55 Clear 57 14 43 6 59 59 SSE 13 20 29.59 1002 10 16 0.00 0.00
10:15 pm 22:15 Clear 55 13 43 6 63 63 SSE 12 19 29.59 1002 10 16 0.00 0.00
10:35 pm 22:35 Clear 55 13 43 6 63 63 SSE 12 19 29.59 1002 10 16 0.00 0.00
10:55 pm 22:55 Clear 55 13 43 6 63 63 SSE 16 26 29.59 1002 10 16 0.00 0.00
11:15 pm 23:15 Clear 55 13 43 6 63 63 SSE 15 24 29.59 1002 10 16 0.00 0.00
11:35 pm 23:35 Clear 55 13 43 6 63 63 SSE 16 26 29.59 1002 10 16 0.00 0.00
11:55 pm 23:55 Clear 55 13 43 6 63 63 SSE 15 24 29.59 1002 10 16 0.00 0.00

Powered by AerisWeather